TimeHST,TemperatureF,Dew PointF,Humidity,Sea Level PressureIn,VisibilityMPH,Wind Direction,Wind SpeedMPH,Gust SpeedMPH,PrecipitationIn,Events,Conditions,WindDirDegrees,DateUTC
12:54 AM,73.0,68.0,84,30.00,10.0,NNE,5.8,-,N/A,,Clear,20,2013-10-24 10:54:00
1:54 AM,72.0,68.0,87,29.98,10.0,NNE,4.6,-,N/A,,Clear,20,2013-10-24 11:54:00
2:54 AM,72.0,66.0,81,29.97,10.0,NE,3.5,-,N/A,,Clear,40,2013-10-24 12:54:00
3:54 AM,71.1,64.9,81,29.97,10.0,North,3.5,-,N/A,,Clear,10,2013-10-24 13:54:00
4:54 AM,71.1,66.9,87,29.97,10.0,NNE,4.6,-,N/A,,Clear,30,2013-10-24 14:54:00
5:54 AM,71.1,69.1,93,29.98,10.0,NE,4.6,-,N/A,,Clear,40,2013-10-24 15:54:00
6:54 AM,73.0,66.9,81,29.99,10.0,NE,6.9,-,N/A,,Clear,50,2013-10-24 16:54:00
7:54 AM,77.0,69.1,76,30.00,10.0,NE,10.4,-,N/A,,Clear,50,2013-10-24 17:54:00
8:54 AM,78.1,69.1,74,30.01,10.0,NNE,12.7,-,N/A,,Clear,30,2013-10-24 18:54:00
9:54 AM,80.1,66.9,64,30.01,10.0,NNE,13.8,21.9,N/A,,Partly Cloudy,30,2013-10-24 19:54:00
10:54 AM,80.1,66.9,64,30.00,10.0,NNE,13.8,23.0,N/A,,Scattered Clouds,30,2013-10-24 20:54:00
11:54 AM,82.9,68.0,60,29.97,10.0,NE,16.1,21.9,N/A,,Scattered Clouds,50,2013-10-24 21:54:00
12:54 PM,84.9,66.9,55,29.94,10.0,North,10.4,17.3,N/A,,Clear,10,2013-10-24 22:54:00
1:54 PM,80.1,66.9,64,29.93,10.0,NNE,10.4,18.4,N/A,,Clear,20,2013-10-24 23:54:00
2:54 PM,80.1,66.9,64,29.92,10.0,NNE,10.4,-,N/A,,Partly Cloudy,20,2013-10-25 00:54:00
3:54 PM,82.0,68.0,62,29.93,10.0,NNE,10.4,17.3,N/A,,Clear,20,2013-10-25 01:54:00
4:54 PM,80.1,68.0,67,29.94,10.0,North,5.8,-,N/A,,Partly Cloudy,10,2013-10-25 02:54:00
5:54 PM,75.9,69.1,79,29.96,10.0,NNE,8.1,-,N/A,,Clear,30,2013-10-25 03:54:00
6:54 PM,75.0,69.1,82,29.98,10.0,NNE,8.1,-,N/A,,Clear,30,2013-10-25 04:54:00
7:54 PM,73.9,68.0,82,30.00,10.0,NE,8.1,-,N/A,,Clear,50,2013-10-25 05:54:00
8:54 PM,73.9,68.0,82,30.01,10.0,NE,6.9,-,N/A,,Clear,40,2013-10-25 06:54:00
9:54 PM,73.9,69.1,85,30.02,10.0,NE,4.6,-,N/A,,Clear,40,2013-10-25 07:54:00
10:54 PM,73.9,68.0,82,30.02,10.0,NNE,5.8,-,N/A,,Clear,30,2013-10-25 08:54:00
11:54 PM,73.0,69.1,87,30.01,10.0,NE,9.2,-,N/A,,Clear,50,2013-10-25 09:54:00